Time,TemperatureF,DewpointF,PressureIn,WindDirection,WindDirectionDegrees,WindSpeedMPH,WindSpeedGustMPH,Humidity,HourlyPrecipIn,Conditions,Clouds,dailyrainin,SoftwareType,DateUTC
2013-04-10 00:00:00,41.3,40.0,29.91,NE,45,5.0,10.0,95,0.00,CLR,,0.28,WeatherDisplay:10.37,2013-04-10 05:00:00,
2013-04-10 00:03:00,43.2,41.0,29.84,ENE,65,17.1,19.6,92,0.00,CLR,,0.00,WeatherDisplay:10.37,2013-04-10 05:03:00,
2013-04-10 00:05:00,41.2,39.9,29.93,NE,54,6.0,9.0,95,0.01,RA,,0.29,WeatherDisplay:10.37,2013-04-10 05:05:00,
2013-04-10 00:08:00,43.2,41.0,29.85,ENE,64,19.7,20.7,92,0.00,,,0.00,WeatherDisplay:10.37,2013-04-10 05:08:00,
2013-04-10 00:10:00,41.3,40.0,29.92,ENE,67,1.0,12.0,95,0.02,RA,,0.30,WeatherDisplay:10.37,2013-04-10 05:10:00,
2013-04-10 00:13:00,43.2,41.0,29.85,East,82,13.3,16.1,92,0.00,,,0.00,WeatherDisplay:10.37,2013-04-10 05:13:00,
2013-04-10 00:15:00,41.5,40.4,29.93,ENE,73,3.0,7.0,96,0.04,RA,,0.32,WeatherDisplay:10.37,2013-04-10 05:15:00,
2013-04-10 00:18:00,43.1,40.9,29.84,NE,55,15.2,19.6,92,0.00,,,0.00,WeatherDisplay:10.37,2013-04-10 05:18:00,
2013-04-10 00:20:00,41.7,40.6,29.94,East,94,2.0,9.0,96,0.05,RA,,0.33,WeatherDisplay:10.37,2013-04-10 05:20:00,
2013-04-10 00:23:00,43.2,41.0,29.84,ENE,61,16.5,19.6,92,0.00,,,0.00,WeatherDisplay:10.37,2013-04-10 05:23:00,
2013-04-10 00:25:00,42.0,40.9,29.95,East,99,1.0,6.0,96,0.06,RA,,0.34,WeatherDisplay:10.37,2013-04-10 05:25:00,
2013-04-10 00:28:00,43.1,41.2,29.84,NE,45,13.5,18.4,93,0.00,,,0.00,WeatherDisplay:10.37,2013-04-10 05:28:00,
2013-04-10 00:30:00,42.2,41.1,29.96,ESE,105,6.0,7.0,96,0.06,RA,,0.34,WeatherDisplay:10.37,2013-04-10 05:30:00,
2013-04-10 00:33:00,43.2,41.3,29.83,NE,53,14.8,19.6,93,0.00,,,0.00,WeatherDisplay:10.37,2013-04-10 05:33:00,
2013-04-10 00:35:00,42.3,41.2,29.97,ESE,116,1.0,7.0,96,0.06,CLR,,0.34,WeatherDisplay:10.37,2013-04-10 05:35:00,
2013-04-10 00:39:00,43.2,41.3,29.83,ENE,65,14.3,16.1,93,0.00,,,0.00,WeatherDisplay:10.37,2013-04-10 05:39:00,
2013-04-10 00:40:00,42.4,41.1,29.97,SE,125,3.0,5.0,95,0.06,CLR,,0.34,WeatherDisplay:10.37,2013-04-10 05:40:00,
2013-04-10 00:44:00,43.2,41.3,29.83,NE,53,11.8,18.4,93,0.00,,,0.00,WeatherDisplay:10.37,2013-04-10 05:44:00,
2013-04-10 00:45:00,42.4,41.1,29.96,SE,125,3.0,8.0,95,0.07,RA,,0.35,WeatherDisplay:10.37,2013-04-10 05:45:00,
2013-04-10 00:49:00,43.2,41.0,29.83,NE,52,13.3,16.1,92,0.00,,,0.00,WeatherDisplay:10.37,2013-04-10 05:49:00,
2013-04-10 00:50:00,42.5,41.2,29.97,ESE,123,1.0,5.0,95,0.07,RA,,0.35,WeatherDisplay:10.37,2013-04-10 05:50:00,
2013-04-10 00:54:00,43.2,41.3,29.83,NE,44,14.7,18.4,93,0.00,,,0.00,WeatherDisplay:10.37,2013-04-10 05:54:00,
2013-04-10 00:55:00,42.4,40.8,29.96,East,95,3.0,4.0,94,0.08,RA,,0.36,WeatherDisplay:10.37,2013-04-10 05:55:00,
2013-04-10 01:00:00,43.1,41.2,29.83,NE,53,13.8,19.6,93,0.00,,,0.00,WeatherDisplay:10.37,2013-04-10 06:00:00,
2013-04-10 01:05:00,43.1,41.2,29.83,ENE,70,12.6,19.0,93,0.00,,,0.00,WeatherDisplay:10.37,2013-04-10 06:05:00,
2013-04-10 01:10:00,43.1,41.2,29.84,East,82,10.1,15.0,93,0.00,,,0.00,WeatherDisplay:10.37,2013-04-10 06:10:00,
2013-04-10 01:15:00,43.2,41.3,29.84,NE,46,13.3,15.0,93,0.00,,,0.00,WeatherDisplay:10.37,2013-04-10 06:15:00,
2013-04-10 01:20:00,43.2,41.3,29.83,ENE,63,12.6,16.1,93,0.00,,,0.00,WeatherDisplay:10.37,2013-04-10 06:20:00,
2013-04-10 01:25:00,43.2,41.3,29.83,NE,55,12.0,17.0,93,0.00,,,0.00,WeatherDisplay:10.37,2013-04-10 06:25:00,
2013-04-10 01:30:00,43.2,41.3,29.83,ENE,58,9.5,12.7,93,0.00,,,0.00,WeatherDisplay:10.37,2013-04-10 06:30:00,
2013-04-10 01:35:00,43.2,41.3,29.83,NE,46,4.6,10.4,93,0.00,,,0.00,WeatherDisplay:10.37,2013-04-10 06:35:00,
2013-04-10 01:40:00,43.3,41.4,29.83,NE,56,9.7,12.7,93,0.00,,,0.00,WeatherDisplay:10.37,2013-04-10 06:40:00,
2013-04-10 01:45:00,43.3,41.4,29.83,NE,41,10.6,12.7,93,0.00,,,0.00,WeatherDisplay:10.37,2013-04-10 06:45:00,
2013-04-10 01:50:00,43.3,41.4,29.83,ENE,59,12.5,16.1,93,0.00,,,0.00,WeatherDisplay:10.37,2013-04-10 06:50:00,
2013-04-10 01:55:00,41.6,40.3,29.89,NE,42,7.0,13.0,95,0.02,RA,,0.38,WeatherDisplay:10.37,2013-04-10 06:55:00,
2013-04-10 01:56:00,43.4,41.5,29.83,ENE,65,10.2,11.5,93,0.00,,,0.00,WeatherDisplay:10.37,2013-04-10 06:56:00,
2013-04-10 02:00:00,41.6,40.3,29.87,NE,43,12.0,15.0,95,0.01,CLR,,0.38,WeatherDisplay:10.37,2013-04-10 07:00:00,
2013-04-10 02:01:00,43.4,41.5,29.83,ENE,68,11.7,16.1,93,0.00,,,0.00,WeatherDisplay:10.37,2013-04-10 07:01:00,
2013-04-10 02:05:00,41.6,40.3,29.87,NE,45,10.0,15.0,95,0.02,RA,,0.39,WeatherDisplay:10.37,2013-04-10 07:05:00,
2013-04-10 02:06:00,43.3,41.4,29.83,ENE,72,10.3,11.5,93,0.00,,,0.00,WeatherDisplay:10.37,2013-04-10 07:06:00,
2013-04-10 02:10:00,41.7,40.4,29.88,NE,38,6.0,13.0,95,0.02,RA,,0.39,WeatherDisplay:10.37,2013-04-10 07:10:00,
2013-04-10 02:12:00,43.2,41.3,29.83,NE,47,10.9,13.8,93,0.00,,,0.00,WeatherDisplay:10.37,2013-04-10 07:12:00,
2013-04-10 02:15:00,41.7,40.4,29.88,NNE,27,7.0,13.0,95,0.02,CLR,,0.39,WeatherDisplay:10.37,2013-04-10 07:15:00,
2013-04-10 02:17:00,43.2,41.3,29.80,ENE,72,12.4,16.1,93,0.00,,,0.00,WeatherDisplay:10.37,2013-04-10 07:17:00,
2013-04-10 02:20:00,41.7,40.4,29.89,NE,35,5.0,10.0,95,0.03,RA,,0.40,WeatherDisplay:10.37,2013-04-10 07:20:00,
2013-04-10 02:22:00,43.1,41.5,29.81,ENE,67,12.0,15.0,94,0.00,,,0.00,WeatherDisplay:10.37,2013-04-10 07:22:00,
2013-04-10 02:25:00,41.6,40.3,29.90,NE,43,5.0,10.0,95,0.03,RA,,0.40,WeatherDisplay:10.37,2013-04-10 07:25:00,
2013-04-10 02:28:00,43.0,41.4,29.81,NE,51,12.6,15.0,94,0.00,,,0.00,WeatherDisplay:10.37,2013-04-10 07:28:00,
2013-04-10 02:30:00,41.5,40.2,29.88,NE,43,10.0,13.0,95,0.04,RA,,0.41,WeatherDisplay:10.37,2013-04-10 07:30:00,
2013-04-10 02:34:00,43.1,41.5,29.81,ESE,102,12.3,13.8,94,0.00,,,0.00,WeatherDisplay:10.37,2013-04-10 07:34:00,
2013-04-10 02:35:00,41.6,40.3,29.89,NE,45,3.0,10.0,95,0.05,RA,,0.42,WeatherDisplay:10.37,2013-04-10 07:35:00,
2013-04-10 02:40:00,43.2,41.6,29.82,ENE,64,10.1,13.8,94,0.00,,,0.00,WeatherDisplay:10.37,2013-04-10 07:40:00,
2013-04-10 02:45:00,43.2,41.6,29.83,NE,55,9.6,11.5,94,0.00,,,0.00,WeatherDisplay:10.37,2013-04-10 07:45:00,
2013-04-10 02:50:00,43.1,41.5,29.84,ENE,75,10.6,13.8,94,0.00,,,0.00,WeatherDisplay:10.37,2013-04-10 07:50:00,
2013-04-10 02:55:00,43.1,41.5,29.83,ENE,61,10.7,13.8,94,0.00,,,0.00,WeatherDisplay:10.37,2013-04-10 07:55:00,
2013-04-10 03:00:00,43.0,41.4,29.83,NE,40,10.2,13.8,94,0.00,,,0.00,WeatherDisplay:10.37,2013-04-10 08:00:00,
2013-04-10 03:05:00,43.1,41.5,29.84,ENE,61,8.8,13.0,94,0.00,,,0.00,WeatherDisplay:10.37,2013-04-10 08:05:00,
2013-04-10 03:10:00,42.9,41.3,29.83,East,91,12.6,15.0,94,0.00,,,0.00,WeatherDisplay:10.37,2013-04-10 08:10:00,
2013-04-10 03:15:00,42.9,41.3,29.82,ENE,64,14.2,17.3,94,0.00,,,0.00,WeatherDisplay:10.37,2013-04-10 08:15:00,
2013-04-10 03:20:00,41.9,40.6,29.88,ENE,68,12.0,13.0,95,0.05,RA,,0.45,WeatherDisplay:10.37,2013-04-10 08:20:00,
2013-04-10 03:21:00,42.8,41.2,29.82,ENE,58,15.0,19.6,94,0.00,,,0.00,WeatherDisplay:10.37,2013-04-10 08:21:00,
2013-04-10 03:25:00,41.9,40.6,29.88,ENE,65,12.0,15.0,95,0.05,CLR,,0.45,WeatherDisplay:10.37,2013-04-10 08:25:00,
2013-04-10 03:26:00,42.8,41.2,29.82,NE,55,14.7,18.0,94,0.00,,,0.00,WeatherDisplay:10.37,2013-04-10 08:26:00,
2013-04-10 03:30:00,42.0,40.7,29.87,ENE,60,2.0,17.0,95,0.04,CLR,,0.45,WeatherDisplay:10.37,2013-04-10 08:30:00,
2013-04-10 03:35:00,42.0,40.4,29.87,NE,54,10.0,15.0,94,0.04,RA,,0.46,WeatherDisplay:10.37,2013-04-10 08:35:00,
2013-04-10 03:40:00,42.7,41.1,29.80,NE,36,19.0,19.6,94,0.00,CLR,,0.00,WeatherDisplay:10.37,2013-04-10 08:40:00,
2013-04-10 03:45:00,42.7,41.1,29.80,ENE,63,14.0,20.0,94,0.00,,,0.00,WeatherDisplay:10.37,2013-04-10 08:45:00,
2013-04-10 03:50:00,42.7,41.1,29.79,ENE,61,15.0,23.0,94,0.00,,,0.00,WeatherDisplay:10.37,2013-04-10 08:50:00,
2013-04-10 03:55:00,42.7,41.1,29.78,ENE,57,16.0,22.0,94,0.00,,,0.00,WeatherDisplay:10.37,2013-04-10 08:55:00,
2013-04-10 04:00:00,42.7,41.1,29.78,NE,56,16.0,20.0,94,0.00,,,0.00,WeatherDisplay:10.37,2013-04-10 09:00:00,
2013-04-10 04:05:00,42.7,41.1,29.79,ENE,68,14.6,17.3,94,0.00,,,0.00,WeatherDisplay:10.37,2013-04-10 09:05:00,
2013-04-10 04:10:00,42.8,41.2,29.81,NE,37,10.7,13.8,94,0.00,,,0.00,WeatherDisplay:10.37,2013-04-10 09:10:00,
2013-04-10 04:15:00,42.9,41.3,29.87,North,6,15.1,18.4,94,0.00,,,0.00,WeatherDisplay:10.37,2013-04-10 09:15:00,
2013-04-10 04:20:00,42.8,41.2,29.86,NW,322,10.8,16.1,94,0.00,,,0.00,WeatherDisplay:10.37,2013-04-10 09:20:00,
2013-04-10 04:25:00,42.8,40.9,29.91,North,352,12.9,17.3,93,0.00,,,0.00,WeatherDisplay:10.37,2013-04-10 09:25:00,
2013-04-10 04:30:00,42.5,40.6,29.88,NNW,342,12.6,19.6,93,0.00,,,0.00,WeatherDisplay:10.37,2013-04-10 09:30:00,
2013-04-10 04:35:00,42.3,40.4,29.90,North,351,14.2,17.3,93,0.00,,,0.00,WeatherDisplay:10.37,2013-04-10 09:35:00,
2013-04-10 04:40:00,42.1,40.2,29.88,NNW,345,10.2,16.0,93,0.00,,,0.00,WeatherDisplay:10.37,2013-04-10 09:40:00,
2013-04-10 04:45:00,41.9,40.0,29.84,NE,53,15.9,26.5,93,0.00,,,0.00,WeatherDisplay:10.37,2013-04-10 09:45:00,
2013-04-10 04:50:00,41.6,39.7,29.86,NE,43,13.4,19.6,93,0.00,,,0.00,WeatherDisplay:10.37,2013-04-10 09:50:00,
2013-04-10 04:55:00,41.4,39.5,29.84,NE,53,17.3,23.0,93,0.00,,,0.00,WeatherDisplay:10.37,2013-04-10 09:55:00,
2013-04-10 05:00:00,41.2,39.3,29.86,NNE,33,15.1,20.0,93,0.01,RA,,0.01,WeatherDisplay:10.37,2013-04-10 10:00:00,
2013-04-10 05:05:00,41.0,39.1,29.86,ENE,63,13.7,19.6,93,0.01,RA,,0.01,WeatherDisplay:10.37,2013-04-10 10:05:00,
2013-04-10 05:10:00,40.8,38.9,29.83,NE,55,14.8,19.6,93,0.01,,,0.01,WeatherDisplay:10.37,2013-04-10 10:10:00,
2013-04-10 05:15:00,40.7,38.8,29.84,ENE,57,15.5,20.7,93,0.01,,,0.01,WeatherDisplay:10.37,2013-04-10 10:15:00,
2013-04-10 05:20:00,40.6,38.5,29.83,NE,43,20.4,21.9,92,0.01,,,0.01,WeatherDisplay:10.37,2013-04-10 10:20:00,
2013-04-10 05:26:00,40.5,38.4,29.81,NE,56,18.3,24.2,92,0.01,,,0.01,WeatherDisplay:10.37,2013-04-10 10:26:00,
2013-04-10 05:30:00,40.4,38.0,29.84,ENE,60,16.9,23.0,91,0.01,,,0.01,WeatherDisplay:10.37,2013-04-10 10:30:00,
2013-04-10 05:36:00,40.4,38.0,29.88,NE,53,10.7,16.1,91,0.01,,,0.01,WeatherDisplay:10.37,2013-04-10 10:36:00,
2013-04-10 05:41:00,40.8,39.2,30.14,NNE,17,21.6,41.4,94,0.01,,,0.02,WeatherDisplay:10.37,2013-04-10 10:41:00,
2013-04-10 05:46:00,39.5,37.9,29.95,North,356,8.1,15.0,94,0.08,RA,,0.10,WeatherDisplay:10.37,2013-04-10 10:46:00,
2013-04-10 05:51:00,38.9,37.6,29.89,NE,53,11.5,11.5,95,0.12,RA,,0.12,WeatherDisplay:10.37,2013-04-10 10:51:00,
2013-04-10 05:56:00,38.5,37.5,29.81,ENE,68,19.3,23.0,96,0.14,RA,,0.14,WeatherDisplay:10.37,2013-04-10 10:56:00,
2013-04-10 06:01:00,38.0,37.0,29.79,East,94,20.3,29.9,96,0.14,RA,,0.16,WeatherDisplay:10.37,2013-04-10 11:01:00,
2013-04-10 06:06:00,37.7,36.9,29.84,ENE,75,15.5,20.7,97,0.15,RA,,0.16,WeatherDisplay:10.37,2013-04-10 11:06:00,
2013-04-10 06:12:00,37.6,36.8,29.86,ENE,65,6.8,17.3,97,0.15,RA,,0.16,WeatherDisplay:10.37,2013-04-10 11:12:00,
2013-04-10 06:17:00,37.5,36.7,29.83,NE,36,17.2,23.0,97,0.15,,,0.16,WeatherDisplay:10.37,2013-04-10 11:17:00,
2013-04-10 06:22:00,37.3,36.5,29.84,ENE,78,20.5,23.0,97,0.15,,,0.16,WeatherDisplay:10.37,2013-04-10 11:22:00,
2013-04-10 06:27:00,37.0,36.2,29.84,East,86,16.1,24.2,97,0.15,,,0.16,WeatherDisplay:10.37,2013-04-10 11:27:00,
2013-04-10 06:32:00,37.0,36.2,29.84,ENE,60,16.7,20.7,97,0.15,,,0.16,WeatherDisplay:10.37,2013-04-10 11:32:00,
2013-04-10 06:37:00,36.9,36.1,29.84,ENE,69,18.2,20.7,97,0.15,,,0.16,WeatherDisplay:10.37,2013-04-10 11:37:00,
2013-04-10 06:42:00,36.9,36.1,29.84,ENE,61,15.6,19.6,97,0.12,,,0.16,WeatherDisplay:10.37,2013-04-10 11:42:00,
2013-04-10 06:47:00,36.9,36.1,29.83,NNE,26,14.6,20.7,97,0.05,,,0.16,WeatherDisplay:10.37,2013-04-10 11:47:00,
2013-04-10 06:52:00,37.0,36.2,29.83,ENE,70,13.4,19.6,97,0.03,,,0.16,WeatherDisplay:10.37,2013-04-10 11:52:00,
2013-04-10 06:57:00,37.1,36.3,29.83,NE,49,8.2,13.8,97,0.01,,,0.16,WeatherDisplay:10.37,2013-04-10 11:57:00,
2013-04-10 07:02:00,37.2,36.4,29.83,ENE,61,11.2,18.4,97,0.00,CLR,,0.16,WeatherDisplay:10.37,2013-04-10 12:02:00,
2013-04-10 07:07:00,37.2,36.4,29.82,NE,51,13.4,18.4,97,0.00,CLR,,0.16,WeatherDisplay:10.37,2013-04-10 12:07:00,
2013-04-10 07:12:00,37.3,36.5,29.82,ENE,63,3.6,10.4,97,0.00,CLR,,0.16,WeatherDisplay:10.37,2013-04-10 12:12:00,
2013-04-10 07:17:00,37.5,37.0,29.82,ENE,77,4.9,12.7,98,0.00,CLR,,0.16,WeatherDisplay:10.37,2013-04-10 12:17:00,
2013-04-10 07:23:00,37.7,37.2,29.84,NE,47,1.7,5.8,98,0.00,CLR,,0.16,WeatherDisplay:10.37,2013-04-10 12:23:00,
2013-04-10 07:28:00,38.0,37.5,29.84,SE,128,1.3,4.0,98,0.00,CLR,,0.16,WeatherDisplay:10.37,2013-04-10 12:28:00,
2013-04-10 07:33:00,38.2,37.7,29.84,East,82,1.2,4.6,98,0.00,CLR,,0.16,WeatherDisplay:10.37,2013-04-10 12:33:00,
2013-04-10 07:38:00,38.5,38.0,29.83,SE,141,1.5,8.1,98,0.00,CLR,,0.16,WeatherDisplay:10.37,2013-04-10 12:38:00,
2013-04-10 07:43:00,38.7,38.2,29.82,SE,134,4.6,10.4,98,0.00,CLR,,0.16,WeatherDisplay:10.37,2013-04-10 12:43:00,
2013-04-10 07:48:00,39.0,38.5,29.84,ENE,60,1.5,3.5,98,0.00,CLR,,0.16,WeatherDisplay:10.37,2013-04-10 12:48:00,
2013-04-10 07:53:00,39.0,38.5,29.84,ENE,64,3.5,10.4,98,0.00,CLR,,0.16,WeatherDisplay:10.37,2013-04-10 12:53:00,
2013-04-10 07:58:00,39.2,38.7,29.84,ESE,112,0.5,6.9,98,0.00,CLR,,0.16,WeatherDisplay:10.37,2013-04-10 12:58:00,
2013-04-10 08:03:00,39.3,38.8,29.84,SE,145,5.6,10.4,98,0.00,CLR,,0.16,WeatherDisplay:10.37,2013-04-10 13:03:00,
2013-04-10 08:08:00,39.5,39.0,29.85,NE,43,0.8,5.0,98,0.00,CLR,,0.16,WeatherDisplay:10.37,2013-04-10 13:08:00,
2013-04-10 08:13:00,39.5,39.0,29.86,ENE,57,6.8,11.5,98,0.00,CLR,,0.16,WeatherDisplay:10.37,2013-04-10 13:13:00,
2013-04-10 08:18:00,39.5,39.0,29.85,ESE,117,2.7,4.6,98,0.00,CLR,,0.16,WeatherDisplay:10.37,2013-04-10 13:18:00,
2013-04-10 08:23:00,39.5,39.0,29.84,NE,39,4.6,9.0,98,0.00,CLR,,0.16,WeatherDisplay:10.37,2013-04-10 13:23:00,
2013-04-10 08:28:00,39.5,39.0,29.85,NE,44,4.8,10.4,98,0.00,CLR,,0.16,WeatherDisplay:10.37,2013-04-10 13:28:00,
2013-04-10 08:33:00,39.7,39.2,29.89,SW,228,0.0,0.0,98,0.00,CLR,,0.16,WeatherDisplay:10.37,2013-04-10 13:33:00,
2013-04-10 08:38:00,39.7,39.2,29.93,SW,228,1.3,3.5,98,0.00,CLR,,0.16,WeatherDisplay:10.37,2013-04-10 13:38:00,
2013-04-10 08:43:00,39.7,39.2,29.96,WSW,243,3.3,3.5,98,0.00,CLR,,0.16,WeatherDisplay:10.37,2013-04-10 13:43:00,
2013-04-10 08:48:00,40.0,39.5,29.97,SSE,153,5.0,6.9,98,0.00,CLR,,0.16,WeatherDisplay:10.37,2013-04-10 13:48:00,
2013-04-10 08:53:00,40.1,39.6,29.96,SE,139,1.9,3.5,98,0.00,CLR,,0.16,WeatherDisplay:10.37,2013-04-10 13:53:00,
2013-04-10 08:58:00,40.0,39.5,29.93,East,99,1.1,2.3,98,0.01,RA,,0.17,WeatherDisplay:10.37,2013-04-10 13:58:00,
2013-04-10 09:02:00,39.9,39.4,29.90,ENE,65,8.5,10.4,98,0.02,RA,,0.18,WeatherDisplay:10.37,2013-04-10 14:02:00,
2013-04-10 09:03:00,39.9,39.4,29.90,ENE,65,8.5,10.4,98,0.02,RA,,0.18,WeatherDisplay:10.37,2013-04-10 14:03:00,
2013-04-10 09:08:00,39.9,39.4,29.90,ENE,65,8.5,10.4,98,0.02,RA,,0.18,WeatherDisplay:10.37,2013-04-10 14:08:00,
2013-04-10 10:02:00,39.9,39.4,29.90,ENE,65,8.5,10.4,98,0.02,RA,,0.18,WeatherDisplay:10.37,2013-04-10 15:02:00,
2013-04-10 10:07:00,39.9,39.4,29.90,ENE,65,8.5,10.4,98,0.02,RA,,0.18,WeatherDisplay:10.37,2013-04-10 15:07:00,
2013-04-10 12:10:00,39.9,39.4,29.90,ENE,65,8.5,10.4,98,0.02,RA,,0.18,WeatherDisplay:10.37,2013-04-10 17:10:00,
2013-04-10 16:21:00,42.2,40.6,29.87,ENE,58,18.0,24.0,94,0.01,CLR,,0.46,WeatherDisplay:10.37,2013-04-10 21:21:00,
2013-04-10 16:26:00,42.4,40.8,29.87,NE,56,10.8,16.1,94,0.01,,,0.46,WeatherDisplay:10.37,2013-04-10 21:26:00,
2013-04-10 16:32:00,42.4,40.8,29.88,NE,45,5.6,8.1,94,0.01,,,0.46,WeatherDisplay:10.37,2013-04-10 21:32:00,
2013-04-10 16:37:00,42.3,40.4,29.86,ENE,58,14.3,18.4,93,0.00,,,0.46,WeatherDisplay:10.37,2013-04-10 21:37:00,
2013-04-10 16:42:00,42.4,40.8,29.84,ENE,72,12.6,17.3,94,0.00,,,0.46,WeatherDisplay:10.37,2013-04-10 21:42:00,
2013-04-10 16:47:00,42.5,40.9,29.84,ENE,58,8.5,11.5,94,0.00,,,0.46,WeatherDisplay:10.37,2013-04-10 21:47:00,
2013-04-10 16:52:00,42.5,40.9,29.83,ENE,64,6.7,12.0,94,0.00,,,0.46,WeatherDisplay:10.37,2013-04-10 21:52:00,
2013-04-10 16:57:00,42.6,41.0,29.83,ENE,62,15.6,18.4,94,0.00,,,0.46,WeatherDisplay:10.37,2013-04-10 21:57:00,
2013-04-10 17:02:00,42.7,40.8,29.82,NE,44,14.4,20.7,93,0.00,,,0.46,WeatherDisplay:10.37,2013-04-10 22:02:00,
2013-04-10 17:07:00,42.8,40.9,29.82,NE,56,14.9,17.3,93,0.00,,,0.46,WeatherDisplay:10.37,2013-04-10 22:07:00,
2013-04-10 17:12:00,42.8,40.9,29.82,East,93,14.0,19.6,93,0.00,,,0.46,WeatherDisplay:10.37,2013-04-10 22:12:00,
2013-04-10 17:17:00,42.8,40.9,29.83,ENE,77,16.9,23.0,93,0.00,,,0.46,WeatherDisplay:10.37,2013-04-10 22:17:00,
2013-04-10 17:22:00,42.8,40.6,29.83,ENE,68,18.7,23.0,92,0.00,,,0.46,WeatherDisplay:10.37,2013-04-10 22:22:00,
2013-04-10 17:27:00,42.8,40.6,29.82,NE,53,16.9,23.0,92,0.00,,,0.46,WeatherDisplay:10.37,2013-04-10 22:27:00,
2013-04-10 17:32:00,42.7,40.5,29.81,ENE,70,20.0,22.0,92,0.00,,,0.46,WeatherDisplay:10.37,2013-04-10 22:32:00,
2013-04-10 17:37:00,42.5,40.3,29.78,East,82,20.0,25.3,92,0.00,,,0.46,WeatherDisplay:10.37,2013-04-10 22:37:00,
2013-04-10 17:42:00,42.5,40.6,29.76,ENE,65,17.6,23.0,93,0.00,,,0.46,WeatherDisplay:10.37,2013-04-10 22:42:00,
2013-04-10 17:47:00,42.2,40.3,29.75,ENE,60,24.7,28.8,93,0.00,,,0.46,WeatherDisplay:10.37,2013-04-10 22:47:00,
2013-04-10 17:52:00,42.0,40.1,29.76,East,82,17.5,25.3,93,0.00,,,0.46,WeatherDisplay:10.37,2013-04-10 22:52:00,
2013-04-10 17:57:00,41.9,40.0,29.77,ENE,70,20.6,28.8,93,0.00,,,0.46,WeatherDisplay:10.37,2013-04-10 22:57:00,
2013-04-10 18:02:00,41.9,40.0,29.81,NNE,16,8.7,14.0,93,0.00,,,0.46,WeatherDisplay:10.37,2013-04-10 23:02:00,
2013-04-10 18:07:00,41.9,40.0,29.81,NE,47,6.3,13.0,93,0.00,,,0.46,WeatherDisplay:10.37,2013-04-10 23:07:00,
2013-04-10 18:12:00,42.0,40.1,29.82,NE,51,9.7,15.0,93,0.00,,,0.46,WeatherDisplay:10.37,2013-04-10 23:12:00,
2013-04-10 18:17:00,42.1,40.2,29.81,NE,55,14.3,19.6,93,0.00,,,0.46,WeatherDisplay:10.37,2013-04-10 23:17:00,
2013-04-10 18:22:00,42.0,39.8,29.79,NE,37,17.9,24.2,92,0.00,,,0.46,WeatherDisplay:10.37,2013-04-10 23:22:00,
2013-04-10 18:27:00,42.0,40.1,29.79,NE,47,12.7,20.7,93,0.00,,,0.46,WeatherDisplay:10.37,2013-04-10 23:27:00,
2013-04-10 18:32:00,41.9,39.7,29.78,NNE,26,14.1,19.6,92,0.00,,,0.46,WeatherDisplay:10.37,2013-04-10 23:32:00,
2013-04-10 18:37:00,41.9,40.0,29.78,NE,37,6.9,11.0,93,0.00,,,0.46,WeatherDisplay:10.37,2013-04-10 23:37:00,
2013-04-10 18:42:00,41.8,39.9,29.77,ENE,64,19.5,24.2,93,0.00,,,0.46,WeatherDisplay:10.37,2013-04-10 23:42:00,
2013-04-10 18:47:00,41.8,39.9,29.76,ENE,61,17.6,23.0,93,0.00,,,0.46,WeatherDisplay:10.37,2013-04-10 23:47:00,
2013-04-10 18:53:00,41.8,39.9,29.76,ENE,60,16.4,20.7,93,0.00,,,0.46,WeatherDisplay:10.37,2013-04-10 23:53:00,
2013-04-10 18:58:00,41.7,39.8,29.76,East,82,20.6,23.0,93,0.00,,,0.46,WeatherDisplay:10.37,2013-04-10 23:58:00,
2013-04-10 19:03:00,41.7,40.1,29.77,NE,51,16.2,20.7,94,0.00,,,0.46,WeatherDisplay:10.37,2013-04-11 00:03:00,
2013-04-10 19:08:00,41.7,40.1,29.77,ENE,58,15.5,19.6,94,0.00,,,0.46,WeatherDisplay:10.37,2013-04-11 00:08:00,
2013-04-10 19:13:00,41.7,40.1,29.78,NE,51,9.8,17.3,94,0.00,,,0.46,WeatherDisplay:10.37,2013-04-11 00:13:00,
2013-04-10 19:18:00,41.7,40.1,29.80,ENE,58,5.0,10.4,94,0.01,RA,,0.47,WeatherDisplay:10.37,2013-04-11 00:18:00,
2013-04-10 19:23:00,41.7,40.1,29.81,ENE,65,7.4,11.5,94,0.01,RA,,0.48,WeatherDisplay:10.37,2013-04-11 00:23:00,
2013-04-10 19:28:00,41.7,40.4,29.82,ESE,108,2.6,5.0,95,0.03,RA,,0.49,WeatherDisplay:10.37,2013-04-11 00:28:00,
2013-04-10 19:33:00,41.7,40.4,29.82,ESE,118,2.5,4.0,95,0.06,RA,,0.52,WeatherDisplay:10.37,2013-04-11 00:33:00,
2013-04-10 19:38:00,41.7,40.4,29.81,NE,46,6.1,9.2,95,0.09,RA,,0.55,WeatherDisplay:10.37,2013-04-11 00:38:00,
2013-04-10 19:43:00,41.6,40.3,29.80,ENE,66,13.9,17.0,95,0.12,RA,,0.59,WeatherDisplay:10.37,2013-04-11 00:43:00,
2013-04-10 19:48:00,41.6,40.3,29.79,ENE,65,11.4,15.0,95,0.15,RA,,0.62,WeatherDisplay:10.37,2013-04-11 00:48:00,
2013-04-10 19:53:00,41.5,40.2,29.79,NNE,30,8.9,13.8,95,0.18,RA,,0.64,WeatherDisplay:10.37,2013-04-11 00:53:00,
2013-04-10 19:58:00,41.5,40.4,29.80,NE,39,9.5,15.0,96,0.19,RA,,0.66,WeatherDisplay:10.37,2013-04-11 00:58:00,
2013-04-10 20:03:00,41.5,40.4,29.81,North,356,8.7,12.7,96,0.21,RA,,0.67,WeatherDisplay:10.37,2013-04-11 01:03:00,
2013-04-10 20:08:00,41.5,40.4,29.80,NE,46,11.6,14.0,96,0.23,RA,,0.69,WeatherDisplay:10.37,2013-04-11 01:08:00,
2013-04-10 20:13:00,41.4,40.3,29.78,ENE,58,15.4,19.6,96,0.25,RA,,0.71,WeatherDisplay:10.37,2013-04-11 01:13:00,
2013-04-10 20:18:00,41.4,40.3,29.77,ENE,64,11.7,15.0,96,0.26,RA,,0.74,WeatherDisplay:10.37,2013-04-11 01:18:00,
2013-04-10 20:23:00,41.2,40.1,29.78,ENE,64,12.2,18.0,96,0.29,RA,,0.76,WeatherDisplay:10.37,2013-04-11 01:23:00,
2013-04-10 20:28:00,41.1,40.0,29.78,ENE,65,11.9,16.1,96,0.28,RA,,0.78,WeatherDisplay:10.37,2013-04-11 01:28:00,
2013-04-10 20:33:00,41.1,40.0,29.78,ENE,62,12.0,16.1,96,0.27,RA,,0.79,WeatherDisplay:10.37,2013-04-11 01:33:00,
2013-04-10 20:38:00,41.0,39.9,29.77,NE,49,10.3,18.4,96,0.26,RA,,0.81,WeatherDisplay:10.37,2013-04-11 01:38:00,
2013-04-10 20:43:00,41.1,40.0,29.78,NE,53,10.1,13.8,96,0.24,RA,,0.83,WeatherDisplay:10.37,2013-04-11 01:43:00,
2013-04-10 20:48:00,41.1,40.0,29.78,ENE,64,16.5,20.0,96,0.24,RA,,0.86,WeatherDisplay:10.37,2013-04-11 01:48:00,
2013-04-10 20:53:00,41.0,39.9,29.77,ENE,64,15.0,19.6,96,0.25,RA,,0.89,WeatherDisplay:10.37,2013-04-11 01:53:00,
2013-04-10 20:58:00,40.9,39.8,29.78,NE,50,13.4,18.4,96,0.27,RA,,0.92,WeatherDisplay:10.37,2013-04-11 01:58:00,
2013-04-10 21:03:00,40.9,39.8,29.78,NE,55,17.5,20.7,96,0.27,RA,,0.94,WeatherDisplay:10.37,2013-04-11 02:03:00,
2013-04-10 21:08:00,40.9,39.8,29.78,ENE,58,18.6,23.0,96,0.27,RA,,0.96,WeatherDisplay:10.37,2013-04-11 02:08:00,
2013-04-10 21:13:00,40.9,39.8,29.80,ENE,65,11.0,13.8,96,0.27,RA,,0.98,WeatherDisplay:10.37,2013-04-11 02:13:00,
2013-04-10 21:18:00,40.9,39.8,29.80,NE,49,14.1,20.7,96,0.27,RA,,1.01,WeatherDisplay:10.37,2013-04-11 02:18:00,
2013-04-10 21:23:00,40.9,39.8,29.80,NE,46,12.4,16.1,96,0.27,RA,,1.03,WeatherDisplay:10.37,2013-04-11 02:23:00,
2013-04-10 21:28:00,40.9,39.8,29.80,ENE,60,13.9,18.4,96,0.29,RA,,1.06,WeatherDisplay:10.37,2013-04-11 02:28:00,
2013-04-10 21:33:00,40.8,39.7,29.79,NE,56,17.9,24.2,96,0.29,RA,,1.08,WeatherDisplay:10.37,2013-04-11 02:33:00,
2013-04-10 21:38:00,40.8,39.7,29.78,ENE,60,17.3,23.0,96,0.30,RA,,1.11,WeatherDisplay:10.37,2013-04-11 02:38:00,
2013-04-10 21:43:00,40.8,39.7,29.79,ENE,70,14.9,20.7,96,0.30,RA,,1.13,WeatherDisplay:10.37,2013-04-11 02:43:00,
2013-04-10 21:48:00,40.7,39.6,29.79,ENE,75,12.1,15.0,96,0.29,RA,,1.14,WeatherDisplay:10.37,2013-04-11 02:48:00,
2013-04-10 21:53:00,40.7,39.6,29.80,ENE,64,15.2,19.6,96,0.26,RA,,1.15,WeatherDisplay:10.37,2013-04-11 02:53:00,
2013-04-10 21:58:00,40.6,39.5,29.81,NE,53,12.1,15.0,96,0.24,RA,,1.16,WeatherDisplay:10.37,2013-04-11 02:58:00,
2013-04-10 22:03:00,40.7,39.6,29.82,NE,55,6.0,8.1,96,0.23,RA,,1.17,WeatherDisplay:10.37,2013-04-11 03:03:00,
2013-04-10 22:08:00,40.6,39.5,29.82,ENE,59,10.2,12.7,96,0.22,RA,,1.18,WeatherDisplay:10.37,2013-04-11 03:08:00,
2013-04-10 22:13:00,40.6,39.5,29.82,NE,55,12.2,15.0,96,0.21,RA,,1.19,WeatherDisplay:10.37,2013-04-11 03:13:00,
2013-04-10 22:18:00,40.6,39.5,29.81,NE,56,12.9,17.3,96,0.21,RA,,1.21,WeatherDisplay:10.37,2013-04-11 03:18:00,
2013-04-10 22:27:00,40.5,39.4,29.79,ENE,70,16.6,19.6,96,0.19,RA,,1.23,WeatherDisplay:10.37,2013-04-11 03:27:00,
2013-04-10 22:32:00,40.5,39.4,29.79,NE,56,14.9,19.6,96,0.17,RA,,1.25,WeatherDisplay:10.37,2013-04-11 03:32:00,
2013-04-10 22:46:00,40.5,39.4,29.80,ENE,64,9.2,11.5,96,0.14,RA,,1.28,WeatherDisplay:10.37,2013-04-11 03:46:00,
2013-04-10 22:51:00,40.5,39.4,29.79,ENE,70,13.6,18.4,96,0.14,RA,,1.30,WeatherDisplay:10.37,2013-04-11 03:51:00,
2013-04-10 22:57:00,40.4,39.4,29.78,ENE,58,14.3,20.0,96,0.15,RA,,1.32,WeatherDisplay:10.37,2013-04-11 03:57:00,
2013-04-10 23:00:00,40.4,39.4,29.77,ENE,77,13.9,17.3,96,0.17,RA,,1.33,WeatherDisplay:10.37,2013-04-11 04:00:00,
2013-04-10 23:05:00,40.4,39.4,29.77,ENE,68,15.0,20.0,96,0.18,RA,,1.35,WeatherDisplay:10.37,2013-04-11 04:05:00,
2013-04-10 23:10:00,40.4,39.4,29.75,ENE,73,16.4,19.0,96,0.18,RA,,1.36,WeatherDisplay:10.37,2013-04-11 04:10:00,
2013-04-10 23:15:00,40.3,39.3,29.66,ENE,58,26.5,29.9,96,0.17,RA,,1.37,WeatherDisplay:10.37,2013-04-11 04:15:00,
2013-04-10 23:20:00,40.2,39.2,29.69,ENE,65,16.7,26.5,96,0.16,RA,,1.38,WeatherDisplay:10.37,2013-04-11 04:20:00,
2013-04-10 23:25:00,40.2,39.4,29.71,NE,53,7.1,11.5,97,0.15,RA,,1.38,WeatherDisplay:10.37,2013-04-11 04:25:00,
2013-04-10 23:30:00,40.2,39.4,29.70,ENE,60,7.3,24.2,97,0.15,RA,,1.39,WeatherDisplay:10.37,2013-04-11 04:30:00,
2013-04-10 23:35:00,40.3,39.5,29.68,ENE,67,17.2,26.5,97,0.14,RA,,1.39,WeatherDisplay:10.37,2013-04-11 04:35:00,
2013-04-10 23:40:00,40.4,39.6,29.69,NE,45,15.1,19.6,97,0.13,,,1.39,WeatherDisplay:10.37,2013-04-11 04:40:00,
2013-04-10 23:45:00,40.4,39.6,29.70,NNE,29,11.7,17.3,97,0.11,,,1.39,WeatherDisplay:10.37,2013-04-11 04:45:00,
2013-04-10 23:50:00,40.6,39.8,29.71,NE,49,13.3,23.0,97,0.10,,,1.39,WeatherDisplay:10.37,2013-04-11 04:50:00,
2013-04-10 23:55:00,40.7,39.6,29.71,NE,53,12.4,19.6,96,0.09,,,1.39,WeatherDisplay:10.37,2013-04-11 04:55:00,